Location: Unspecified
(0.0000°N, 0.0000°E)
Time: 01:54:10
(UTC+00:00)

LilacSat-2 - Pass Details

Date: 17 December 2017
Orbit: 514 x 537 km, 97.5° (Epoch: 21 January)

Event Time Altitude Azimuth Distance (km) Brightness Sun altitude
Rises 05:18:21 0° 24° (NNE) 2,664 ? -8.7°
Reaches altitude 10° 05:20:33 10° 32° (NNE) 1,774 ? -8.1°
Maximum altitude 05:24:08 38° 101° (E) 815 ? -7.3°
Drops below altitude 10° 05:27:42 10° 170° (S) 1,770 ? -6.5°
Sets 05:29:54 0° 178° (S) 2,657 ? -6.0°
